Regional Weather Roundup
Issued by NWS

Home | Current Version | Previous Version | Graphics & Text | Print | Product List | Glossary Off
Versions: 1 2 3 4 5 6 7 8 9 10 11 12 13 14 15 16 17 18 19 20 21 22 23 24 25 26 27 28 29 30 31 32 33 34 35 36 37 38 39 40 41 42 43 44 45 46 47 48 49 50

000
ASUS43 KMKX 041600
RWRWI

WISCONSIN REGIONAL WEATHER ROUNDUP
NATIONAL WEATHER SERVICE MILWAUKEE/SULLIVAN WI
1100 AM CDT MON MAY 04 2015

NOTE: "FAIR" INDICATES FEW OR NO CLOUDS BELOW 12,000 FEET WITH NO
SIGNIFICANT WEATHER AND/OR OBSTRUCTIONS TO VISIBILITY.

WIZ001-002-006>008-014>016-023>028-041700-
NORTHWEST WISCONSIN

CITY           SKY/WX    TMP DP  RH WIND       PRES   REMARKS
SUPERIOR ARPT  SUNNY     59  33  36 NW6       30.18R
ASHLAND        SUNNY     62  35  36 N9        30.17S
HAYWARD        SUNNY     60  34  37 VRB6      30.17R
SIREN          SUNNY     61  30  31 N14       30.17R
CUMBERLAND     SUNNY     59  28  31 N16G23    30.15R
RICE LAKE      SUNNY     62  28  27 N15       30.17R
CHETEK         SUNNY     61  35  37 N9        30.16R
LADYSMITH      SUNNY     60  33  36 N14       30.16R
EAU CLAIRE     SUNNY     64  35  34 N13       30.16R
MENOMONIE      SUNNY     62  33  34 N13       30.16R
NEW RICHMOND   SUNNY     63  32  32 NE13G18   30.17R
OSCEOLA        SUNNY     62  34  34 N8G23     30.20R
$$

WIZ003>005-009-010-017-018-041700-
NORTH CENTRAL WISCONSIN

CITY           SKY/WX    TMP DP  RH WIND       PRES   REMARKS
MANITOWISH WTR SUNNY     56  36  46 N8G16     30.14R
ARBOR VITAE    SUNNY     59  37  43 N10G18    30.13R
WOODRUFF       SUNNY     59  37  43 N10G18    30.13R
RHINELANDER    SUNNY     58  35  42 N7        30.13R
EAGLE RIVER    SUNNY     59  34  38 N12       30.13R
LAND O LAKES   SUNNY     57  35  43 N14       30.14R
PHILLIPS       SUNNY     57  36  44 N10       30.13R
TOMAHAWK       SUNNY     58  37  46 N8        30.14R
MEDFORD        SUNNY     59  39  47 N10       30.14R
MERRILL        SUNNY     61  39  45 N8        30.12R
$$

WIZ029-030-035-036-043>047-041700-
CENTRAL WISCONSIN

CITY           SKY/WX    TMP DP  RH WIND       PRES   REMARKS
WAUSAU         SUNNY     64  36  35 VRB6      30.11R
MOSINEE        SUNNY     63  37  39 N9        30.13R
MARSHFIELD     SUNNY     66  38  35 N10       30.13R
STEVENS POINT  SUNNY     63  39  41 N9        30.12R
WAUPACA        SUNNY     67  45  43 N8        30.10R
WAUTOMA        NOT AVBL
WISC RAPIDS    SUNNY     66  36  32 NE14      30.13R
CAMP DOUGLAS   NOT AVBL
$$

WIZ011>013-019>022-031-037>040-048>050-041700-
NORTHEAST WISCONSIN

CITY           SKY/WX    TMP DP  RH WIND       PRES   REMARKS
ANTIGO         SUNNY     59  40  48 N9        30.11R
SHAWANO        SUNNY     68  41  37 NE7       30.09R
OCONTO         SUNNY     67  42  40 N8        30.07R
STURGEON BAY   MOSUNNY   61  39  44 N13       30.11R
GREEN BAY      SUNNY     69  39  33 NE12      30.09R
MANITOWOC      NOT AVBL
APPLETON       MOSUNNY   64  43  45 N13       30.09R
CLINTONVILLE   SUNNY     64  43  45 N9        30.09R
OSHKOSH        MOSUNNY   66  45  46 NE12      30.09R
$$

WIZ032>034-041-042-053>061-041700-
SOUTHWEST WISCONSIN

CITY           SKY/WX    TMP DP  RH WIND       PRES   REMARKS
LA CROSSE      SUNNY     69  36  29 N10       30.13R
SPARTA         SUNNY     65  38  36 N12G18    30.14R
VIROQUA        SUNNY     63  47  55 N14       30.13R
BOSCOBEL       MOSUNNY   69  56  62 E7        30.10R
PRAIRIE DU CHI PTSUNNY   64  57  78 N3        30.10R
PLATTEVILLE    PTSUNNY   65  58  77 N8        30.10R
$$

WIZ056-057-062-063-064-067-068-041700-
SOUTH CENTRAL WISCONSIN

CITY           SKY/WX    TMP DP  RH WIND       PRES   REMARKS
REEDSBURG      PTSUNNY   64  52  65 N7        30.10R
BARABOO/DELLS  NOT AVBL
LONE ROCK      NOT AVBL
MINERAL POINT  CLOUDY    64  57  77 N7        30.11R
MADISON        PTSUNNY   68  57  68 N8        30.09R
MIDDLETON      PTSUNNY   66  56  69 N5        30.10R
WATERTOWN      CLOUDY    63  59  88 CALM      30.09R
MONROE         CLOUDY    63  57  82 CALM      30.10R
JANESVILLE     CLOUDY    64  57  77 NW3       30.10R
$$

WIZ051-052-058>065-066-070>072-041700-
SOUTHEAST WISCONSIN

CITY           SKY/WX    TMP DP  RH WIND       PRES   REMARKS
MILWAUKEE      CLOUDY    65  56  72 E7        30.09R
WAUKESHA       PTSUNNY   63  55  77 SW7       30.10R
MILWAUKEE/TIMM CLOUDY    66  54  63 NW5       30.09R
RACINE         CLOUDY    67  55  65 NE9       30.10R
BURLINGTON     CLOUDY    64  57  77 W5        30.09R
KENOSHA        CLOUDY    67  58  72 W8        30.09R
FOND DU LAC    MOSUNNY   66  54  65 N9        30.09R
SHEBOYGAN      PTSUNNY   68  49  50 NE14      30.07R
WEST BEND      CLOUDY    63  54  72 W6        30.08R
JUNEAU         PTSUNNY   63  56  76 N6        30.10R
$$

LSZ147-162-041700-
LAKE SUPERIOR

STATION/POSITION TIME  TEMP    WIND        PRES    WAVE
                       AIR SEA DIR/SP/G            HT/PER
                 (UTC) (F)     (DEG/KT/KT) (MB)    (FT/S)
W MID LAKE BUOY  1450   39 35  230/  8/  8 1021.4R   1
DEVILS ISLAND    1500   43     240/ 11/ 13 1022.0R
PORT WING        1540   53     270/  4/  8 1022.4R
SAXON HARBOR     1500   54        CALM     1021.7R
$$

LMZ867-665-643>646-041700-
LAKE MICHIGAN

STATION/POSITION TIME  TEMP    WIND        PRES    WAVE
                       AIR SEA DIR/SP/G            HT/PER
                 (UTC) (F)     (DEG/KT/KT) (MB)    (FT/S)
CHAMBERS ISLAND  1500   55      10/  3/  5 1017.9R
NORTHPORT PIER   1500   50     310/  9/ 11 1017.9R
SISTER BAY       1502   55     360/ 13/ 17   N/A
KEWAUNEE LAKESHO 1500           30/  9/ 12   N/A
SHEBOYGAN LAKESH 1500   60     360/ 14/ 15 1017.6R
PORT WASHINGTON  1500   65     320/  6/ 12 1017.9R
ATWATER BUOY     1500   51      80/  6/  6 1019.1R
MILWAUKEE LAKESH 1500   54      80/  8/ 10   N/A
KENOSHA   LAKESH 1500   64     270/  8/ 10 1017.9R
$$

TC  - TEMPERATURE IN CELSIUS
VSB - VISIBILITY IN STATUTE MILES
WCI - WIND CHILL INDEX
HX  - HEAT INDEX




USA.gov is the U.S. government's official web portal to all federal, state and local government web resources and services.